Regional Weather Roundup
Issued by NWS Upton, NY

Current Version | Previous Version | Text Only | Print | Product List | Glossary Off
Versions: 1 2 3 4 5 6 7 8 9 10 11 12 13 14 15 16 17 18 19 20 21 22 23 24 25 26 27 28 29 30

000
ASUS41 KOKX 262104
RWROKX

REGIONAL WEATHER ROUNDUP
NATIONAL WEATHER SERVICE NEW YORK NY
500 PM EDT FRI AUG 26 2016

NOTE: "FAIR" INDICATES FEW OR NO CLOUDS BELOW 12,000 FEET WITH NO
SIGNIFICANT WEATHER AND/OR OBSTRUCTIONS TO VISIBILITY.

NYZ071-072-176-178-NJZ106-104-262200-
NEW YORK CITY METRO AREA

CITY           SKY/WX    TMP DP  RH WIND       PRES   REMARKS
Central Park     N/A     90  64  43 MISG        N/A  HX  91
LaGuardia APRT MOSUNNY   91  67  44 N13       29.97S HX  94
Kennedy INTL   MOSUNNY   92  70  48 N16G24    29.98R HX  97
Newark/Liberty MOSUNNY   92  64  39 NW15      29.97S HX  93
Bronx Bot Gard   N/A     90  66  45 W10       30.01R HX  92
Wall St Helipt PTCLDY    93  66  40 S5        29.98S HX  96
Teterboro      MOSUNNY   91  63  39 N12G18    29.97S HX  92
$$

NYZ177-179-078>081-262200-
LONG ISLAND NEW YORK

CITY           SKY/WX    TMP DP  RH WIND       PRES   REMARKS
Farmingdale    MOSUNNY   91  69  48 N14       29.97S HX  96
MacArthur/ISP  MOSUNNY   91  70  49 N13       29.96S HX  96
Shirley        SUNNY     91  70  49 N12       29.97S HX  96
Riverhead      NOT AVBL
Westhampton    MOSUNNY   83  72  69 SW6       29.99S
Southampton      N/A     79  73  83 W7        29.93S
Bridgehampton    N/A     91  77  62 W1        29.95S HX 105
East Hampton   FAIR      83  74  73 SW6       29.96S
Montauk          N/A     84  74  71 SW6       29.98R HX  91
$$

NYZ052-065-067-262200-
HUDSON VALLEY

CITY           SKY/WX    TMP DP  RH WIND       PRES   REMARKS
White Plains   MOSUNNY   88  68  51 NW10      30.00R HX  91
Newburgh       MOSUNNY   88  66  48 NW14      30.02S HX  90
Montgomery     SUNNY     89  65  44 NW10      30.01R HX  91
Poughkeepsie   SUNNY     88  63  43 N9        29.98S
Albany         MOSUNNY   85  65  51 W14       30.01R
$$

NJZ001-105-106-008-010-013-015-019>022-104-262200-
NEW JERSEY

CITY           SKY/WX    TMP DP  RH WIND       PRES   REMARKS
Newark/Liberty MOSUNNY   92  64  39 NW15      29.97S HX  93
Teterboro      MOSUNNY   91  63  39 N12G18    29.97S HX  92
Caldwell       SUNNY     89  64  43 N8        30.00R HX  90
Morristown     MOSUNNY   88  66  48 NE10      30.00S HX  90
Somerville     MOSUNNY   91  65  41 NW10      29.98S HX  93
Linden         FAIR      91  64  40 NW12G18   30.00R HX  93
Sussex         SUNNY     87  65  47 N7        30.04R
Abdover          N/A     86  64  47 VRB6      30.04R
Trenton        MOSUNNY   92  64  39 N10       30.00R HX  93
Millville      MOSUNNY   90  73  57 NW8       30.01S HX  98
Atlantic City  MOSUNNY   94  66  39 W12       29.99S HX  97
Wrightstown    SUNNY     92  70  48 N12       29.96S HX  97
Toms River     MOSUNNY   92  69  47 W13       29.99  HX  97
Belmar         MOSUNNY   93  70  46 NW10      29.99S HX  99
$$

PAZ047>061-062-071-262200-
EASTERN PENNSYLVANIA

CITY           SKY/WX    TMP DP  RH WIND       PRES   REMARKS
Philadelphia   MOSUNNY   92  63  38 W13       30.01R HX  93
Allentown      SUNNY     90  64  42 NW10      30.03R HX  91
Scranton       SUNNY     85  63  47 NW10      30.08R
$$

CTZ002-004>006-009-010-012-RIZ004-006-007-MAZ004-011-015-262200-
SOUTHERN NEW ENGLAND
 IN CT

CITY           SKY/WX    TMP DP  RH WIND       PRES   REMARKS
Bradley INTL   MOSUNNY   90  64  42 NW12      29.97R HX  91
Hartford       SUNNY     93  65  39 NW10      29.95R HX  95
Danbury        SUNNY     86  63  45 NW10      30.01S
Wtrbury/Oxford MOSUNNY   84  63  48 N12       30.05R
Bridgeport     SUNNY     91  62  37 NW10      29.96S HX  91
Meriden        SUNNY     92  62  36 NW8       29.96S HX  92
New Haven      MOSUNNY   90  67  46 VRB7      29.96S HX  93
Chester        FAIR      86  75  70 VRB3      29.98S HX  95
Groton         PTSUNNY   81  72  74 SW6       29.95S
Wilimantic     MOSUNNY   90  68  48 NW7       29.97R HX  94

 IN RI

CITY           SKY/WX    TMP DP  RH WIND       PRES   REMARKS
Providence     PTSUNNY   90  68  48 NW13      29.94S HX  94
Block Island   MOSUNNY   80  72  76 SW13      29.97S
Westerly       PTSUNNY   83  71  67 SW6       29.97R
 IN MA

CITY           SKY/WX    TMP DP  RH WIND       PRES   REMARKS
Boston         MOSUNNY   90  68  48 NW14G20   29.94R HX  94
Worcester      MOSUNNY   85  63  47 NW7       30.01R
Westfield      SUNNY     89  64  43 NW14      29.97R HX  90
Provincetown   PTSUNNY   77  74  90 SW9         N/A
Nantucket      PTSUNNY   75  71  87 SW12      29.97S
$$

ANZ330-335-338-340-345-350-353-355-262200-
COASTAL MARINE OBSERVATIONS


STATION/POSITION TIME  SKY/WX   TEMP    WIND        PRES    VSBY  WAVE
                                AIR SEA DIR/SP/G                  HT/PER
                 (UTC)          (F)     (DEG/KT/KT) (MB)    (MI)  (FT/S)
NY HARB ENTRANCE 1950            79 78  220/ 10/ 12 1014.5          3/ 6
20S FIRE ISLAND  1950            77 75  220/ 12/ 14 1014.6          3/ 6
GREAT SOUTH BAY  2000            80 80  240/ 10/ 14   N/A
23 SSW MONTAUK P 1950            76 75  250/ 10/ 12 1015.2          3/ 5
15 E BARNEGAT LI 2000               76                N/A           3/ 5
HUDSON CANYON    1950            79 78              1015.4          4/ 5
KINGS POINT      2000            84 77              1014.9
EXECUTION ROCKS  2000            85     320/ 10/ 12   N/A
CENTRAL LI SOUND 2030            81 78  220/  4/  6   N/A           0
EASTERN LI SOUND 2000            77 71  240/  6/  8   N/A
ROBBINS REEF     2000            89     330/ 10/ 13 1014.4
$$


>>>>>>>>>>>>>>>>>>>>>>>>>>>> KEY <<<<<<<<<<<<<<<<<<<<<<<<<<<
>                                                          <
>     SKY/WX - Sky Condition/Present Weather               <
>     TMP    - Temperature in Fahrenheit                   <
>     DP     - Dew Point in Fahrenheit                     <
>     RH     - Relative Humidity in Percent                <
>     WIND   - Direction (from) and Speed in MPH           <
>     PRES   - Mean Sea Level Pressure (inches of Hg)      <
>     WCI    - Wind Chill Index                            <
>     VSB    - VISIBILITY IN MILES                         <
>     HX     - HEAT INDEX                                  <
>     TC     - TEMPERATURE IN CELSIUS                      <
>     VRB    - VARIABLE WIND DIRECTION                     <
>                                                          <
>>>>>>>>>>>>>>>>>>>>>>>>>>>> KEY <<<<<<<<<<<<<<<<<<<<<<<<<<<




USA.gov is the U.S. government's official web portal to all federal, state and local government web resources and services.